NOK530 VTBD-VTSP

Flight info

Callsign NOK530
Flight time N/A
Altitude 32000
Route VANKO Y8 SAVSA SAVSA1D
Aircraft B738/M-SDE2E3FGHIRWXY/LB1

Departure

Time 2026-04-29 12:59
Airport Don Mueang International Airport (VTBD)

Arrival

Time N/A
Airport Phuket International Airport (VTSP)
Time Latitude Longitude Altitude Speed Heading
2026-04-29 12:14 13.91217 100.59973 16 ft 0 kts 208°
2026-04-29 12:48 13.91224 100.59977 16 ft 4 kts 209°
2026-04-29 12:48 13.91247 100.59991 16 ft 4 kts 208°
2026-04-29 12:49 13.91271 100.60004 17 ft 4 kts 195°
2026-04-29 12:49 13.91282 100.60006 18 ft 1 kts 118°
2026-04-29 12:49 13.91293 100.59985 20 ft 3 kts 118°
2026-04-29 12:49 13.91294 100.59983 16 ft 1 kts 118°
2026-04-29 12:52 13.91273 100.60021 19 ft 10 kts 119°
2026-04-29 12:52 13.91241 100.60081 16 ft 9 kts 119°
2026-04-29 12:52 13.91216 100.60133 17 ft 7 kts 103°
2026-04-29 12:53 13.91229 100.60176 18 ft 6 kts 44°
2026-04-29 12:53 13.91281 100.60207 16 ft 13 kts 28°
2026-04-29 12:53 13.91370 100.60257 16 ft 14 kts 28°
2026-04-29 12:53 13.91450 100.60302 17 ft 12 kts 29°
2026-04-29 12:54 13.91522 100.60342 16 ft 15 kts 28°
2026-04-29 12:54 13.91622 100.60399 16 ft 17 kts 28°
2026-04-29 12:54 13.91719 100.60453 16 ft 15 kts 29°
2026-04-29 12:54 13.91806 100.60503 16 ft 14 kts 28°
2026-04-29 12:55 13.91885 100.60546 16 ft 12 kts 28°
2026-04-29 12:55 13.91955 100.60585 16 ft 11 kts 28°
2026-04-29 12:55 13.92027 100.60625 18 ft 16 kts 28°
2026-04-29 12:55 13.92141 100.60690 18 ft 19 kts 29°
2026-04-29 12:56 13.92254 100.60755 18 ft 18 kts 29°
2026-04-29 12:56 13.92358 100.60812 17 ft 16 kts 27°
2026-04-29 12:56 13.92452 100.60864 17 ft 15 kts 30°
2026-04-29 12:56 13.92563 100.60927 17 ft 21 kts 29°
2026-04-29 12:57 13.92676 100.60994 17 ft 15 kts 52°
2026-04-29 12:57 13.92655 100.61083 18 ft 12 kts 120°
2026-04-29 12:57 13.92614 100.61155 15 ft 12 kts 120°
2026-04-29 12:57 13.92575 100.61204 16 ft 5 kts 179°
2026-04-29 12:58 13.92554 100.61196 15 ft 0 kts 208°
2026-04-29 12:58 13.92461 100.61142 16 ft 50 kts 207°
2026-04-29 12:58 13.91925 100.60842 17 ft 124 kts 208°
2026-04-29 12:58 13.90993 100.60313 102 ft 177 kts 207°
2026-04-29 12:59 13.89865 100.59666 780 ft 190 kts 206°
2026-04-29 12:59 13.88713 100.58991 1745 ft 187 kts 207°
2026-04-29 12:59 13.87703 100.58095 2422 ft 207 kts 234°
2026-04-29 12:59 13.87324 100.56549 2535 ft 248 kts 273°
2026-04-29 13:00 13.87959 100.54854 3065 ft 253 kts 297°
2026-04-29 13:00 13.88839 100.53304 3828 ft 251 kts 297°
2026-04-29 13:00 13.89649 100.51689 4394 ft 255 kts 295°
2026-04-29 13:00 13.90394 100.50035 5089 ft 253 kts 294°
2026-04-29 13:01 13.91101 100.48373 5719 ft 254 kts 293°
2026-04-29 13:01 13.91793 100.46691 6321 ft 256 kts 292°
2026-04-29 13:01 13.92476 100.44992 6886 ft 258 kts 292°
2026-04-29 13:01 13.93157 100.43280 7467 ft 259 kts 292°
2026-04-29 13:02 13.93838 100.41549 7999 ft 262 kts 291°
2026-04-29 13:02 13.94515 100.39821 8539 ft 265 kts 291°
2026-04-29 13:02 13.95202 100.38063 9141 ft 265 kts 291°
2026-04-29 13:02 13.95893 100.36288 9681 ft 268 kts 291°
2026-04-29 13:03 13.96593 100.34491 10148 ft 272 kts 291°
2026-04-29 13:03 13.97222 100.32652 10656 ft 273 kts 279°
2026-04-29 13:03 13.97361 100.30716 11200 ft 273 kts 271°
2026-04-29 13:03 13.97408 100.28756 11696 ft 274 kts 270°
2026-04-29 13:04 13.97455 100.26789 12179 ft 277 kts 271°
2026-04-29 13:04 13.97510 100.24793 12641 ft 279 kts 271°
2026-04-29 13:04 13.97572 100.22803 13172 ft 280 kts 271°
2026-04-29 13:04 13.97639 100.20776 13553 ft 286 kts 271°
2026-04-29 13:05 13.97711 100.18713 13928 ft 290 kts 270°
2026-04-29 13:05 13.97786 100.16640 14411 ft 289 kts 270°
2026-04-29 13:05 13.97861 100.14567 14818 ft 292 kts 271°
2026-04-29 13:05 13.97936 100.12517 14951 ft 283 kts 270°
2026-04-29 13:06 13.98010 100.10481 14983 ft 288 kts 271°
2026-04-29 13:06 13.98041 100.08405 14982 ft 293 kts 263°
2026-04-29 13:06 13.97393 100.06449 15021 ft 288 kts 237°
2026-04-29 13:06 13.96050 100.04938 15370 ft 289 kts 218°
2026-04-29 13:07 13.94406 100.03718 15706 ft 294 kts 215°
2026-04-29 13:07 13.92722 100.02555 16245 ft 290 kts 210°
2026-04-29 13:07 13.90795 100.01929 16603 ft 295 kts 185°
2026-04-29 13:07 13.88744 100.02060 16989 ft 301 kts 168°
2026-04-29 13:08 13.86711 100.02656 17310 ft 306 kts 165°
2026-04-29 13:08 13.84683 100.03327 17715 ft 307 kts 163°
2026-04-29 13:08 13.82638 100.04016 18058 ft 311 kts 164°
2026-04-29 13:08 13.80572 100.04688 18405 ft 312 kts 164°
2026-04-29 13:09 13.78498 100.05356 18757 ft 313 kts 165°
2026-04-29 13:09 13.76419 100.06012 19116 ft 313 kts 166°
2026-04-29 13:09 13.74334 100.06672 19445 ft 315 kts 165°
2026-04-29 13:09 13.72229 100.07331 19751 ft 317 kts 166°
2026-04-29 13:10 13.70130 100.07985 20120 ft 317 kts 166°
2026-04-29 13:10 13.68017 100.08652 20444 ft 320 kts 165°
2026-04-29 13:10 13.65883 100.09321 20673 ft 323 kts 165°
2026-04-29 13:10 13.63737 100.09990 21058 ft 322 kts 165°
2026-04-29 13:11 13.61592 100.10660 21382 ft 323 kts 165°
2026-04-29 13:11 13.59442 100.11333 21672 ft 325 kts 165°
2026-04-29 13:11 13.57274 100.12011 21975 ft 326 kts 165°
2026-04-29 13:11 13.55098 100.12692 22270 ft 328 kts 165°
2026-04-29 13:12 13.52909 100.13377 22562 ft 329 kts 165°
2026-04-29 13:12 13.50715 100.14063 22857 ft 330 kts 165°
2026-04-29 13:12 13.48517 100.14750 23185 ft 330 kts 165°
2026-04-29 13:12 13.46317 100.15439 23458 ft 332 kts 165°
2026-04-29 13:13 13.44128 100.16124 23617 ft 335 kts 165°
2026-04-29 13:13 13.41859 100.16833 23832 ft 337 kts 164°
2026-04-29 13:13 13.39643 100.17525 24056 ft 338 kts 165°
2026-04-29 13:13 13.37395 100.18226 24323 ft 337 kts 165°
2026-04-29 13:14 13.35151 100.18927 24579 ft 337 kts 165°
2026-04-29 13:14 13.32853 100.19387 24723 ft 337 kts 180°
2026-04-29 13:14 13.30501 100.19375 24865 ft 341 kts 182°
2026-04-29 13:14 13.28117 100.19325 25051 ft 342 kts 182°
2026-04-29 13:15 13.25732 100.19275 25259 ft 344 kts 182°
2026-04-29 13:15 13.23337 100.19234 25437 ft 346 kts 181°
2026-04-29 13:15 13.20925 100.19202 25628 ft 347 kts 182°
2026-04-29 13:15 13.18518 100.19177 25881 ft 346 kts 182°
2026-04-29 13:16 13.16099 100.19154 26022 ft 349 kts 182°
2026-04-29 13:16 13.13660 100.19132 26163 ft 352 kts 181°
2026-04-29 13:16 13.11213 100.19110 26390 ft 352 kts 181°
2026-04-29 13:16 13.08764 100.19090 26593 ft 352 kts 181°
2026-04-29 13:17 13.06310 100.19069 26755 ft 354 kts 181°
2026-04-29 13:17 13.03841 100.19047 26908 ft 356 kts 181°
2026-04-29 13:17 13.01360 100.19008 27043 ft 357 kts 185°
2026-04-29 13:17 12.98964 100.18375 27168 ft 357 kts 207°
2026-04-29 13:18 12.96821 100.17107 27365 ft 356 kts 212°
2026-04-29 13:18 12.94732 100.15726 27498 ft 358 kts 214°
2026-04-29 13:18 12.92648 100.14318 27652 ft 359 kts 215°
2026-04-29 13:18 12.90562 100.12914 27873 ft 358 kts 215°
2026-04-29 13:19 12.88474 100.11519 28003 ft 360 kts 214°
2026-04-29 13:19 12.86365 100.10122 28130 ft 362 kts 213°
2026-04-29 13:19 12.84242 100.08724 28244 ft 364 kts 214°
2026-04-29 13:19 12.82106 100.07324 28418 ft 364 kts 213°
2026-04-29 13:20 12.79972 100.05928 28577 ft 364 kts 215°
2026-04-29 13:20 12.77833 100.04529 28707 ft 366 kts 214°
2026-04-29 13:20 12.75682 100.03123 28814 ft 367 kts 215°
2026-04-29 13:20 12.73556 100.01730 28953 ft 368 kts 214°
2026-04-29 13:21 12.71392 100.00315 29067 ft 370 kts 215°
2026-04-29 13:21 12.69224 99.98896 29201 ft 370 kts 214°
2026-04-29 13:21 12.67052 99.97478 29344 ft 371 kts 214°
2026-04-29 13:22 12.63316 99.93964 29481 ft 368 kts 243°
2026-04-29 13:22 12.62431 99.91526 29672 ft 363 kts 257°
2026-04-29 13:22 12.61824 99.89019 29822 ft 363 kts 258°
2026-04-29 13:22 12.61233 99.86502 29943 ft 364 kts 257°
2026-04-29 13:23 12.60618 99.83984 30028 ft 365 kts 257°
2026-04-29 13:23 12.59981 99.81471 30186 ft 364 kts 254°
2026-04-29 13:23 12.58870 99.79141 30262 ft 368 kts 234°
2026-04-29 13:23 12.57002 99.77348 30394 ft 373 kts 215°
2026-04-29 13:24 12.54644 99.76224 30465 ft 379 kts 198°
2026-04-29 13:24 12.52007 99.75892 30517 ft 385 kts 184°
2026-04-29 13:24 12.49327 99.75870 30608 ft 386 kts 182°
2026-04-29 13:25 12.43938 99.75943 30772 ft 388 kts 182°
2026-04-29 13:25 12.38536 99.76002 30932 ft 389 kts 182°
2026-04-29 13:25 12.35832 99.76018 31023 ft 389 kts 182°
2026-04-29 13:26 12.30412 99.76034 31167 ft 390 kts 182°
2026-04-29 13:26 12.24983 99.76041 31296 ft 391 kts 182°
2026-04-29 13:27 12.19566 99.76046 31363 ft 394 kts 183°
2026-04-29 13:27 12.14079 99.76052 31513 ft 394 kts 183°
2026-04-29 13:28 12.08584 99.76059 31643 ft 395 kts 183°
2026-04-29 13:28 12.03081 99.76065 31818 ft 395 kts 183°
2026-04-29 13:29 11.97577 99.76072 31874 ft 397 kts 183°
2026-04-29 13:29 11.92034 99.76077 31879 ft 400 kts 183°
2026-04-29 13:30 11.86453 99.76084 31875 ft 402 kts 183°
2026-04-29 13:30 11.80844 99.76090 31880 ft 404 kts 183°
2026-04-29 13:31 11.75220 99.76097 31867 ft 404 kts 183°
2026-04-29 13:31 11.69596 99.76105 31864 ft 404 kts 183°
2026-04-29 13:32 11.63987 99.76115 31868 ft 403 kts 183°
2026-04-29 13:32 11.58392 99.76125 31857 ft 401 kts 183°
2026-04-29 13:33 11.52818 99.76135 31855 ft 400 kts 183°
2026-04-29 13:33 11.47262 99.76144 31860 ft 399 kts 183°
2026-04-29 13:34 11.42658 99.76152 31861 ft 398 kts 183°
2026-04-29 13:34 11.37129 99.76161 31861 ft 397 kts 183°
2026-04-29 13:35 11.31607 99.76170 31864 ft 397 kts 183°
2026-04-29 13:35 11.26086 99.76180 31855 ft 397 kts 183°
2026-04-29 13:36 11.20565 99.76189 31856 ft 397 kts 183°
2026-04-29 13:36 11.15042 99.76150 31851 ft 396 kts 188°
2026-04-29 13:37 11.12346 99.75702 31858 ft 391 kts 199°
2026-04-29 13:37 11.09737 99.74915 31868 ft 391 kts 200°
2026-04-29 13:37 11.04548 99.73241 31863 ft 392 kts 201°
2026-04-29 13:38 10.99336 99.71564 31863 ft 393 kts 201°
2026-04-29 13:38 10.94104 99.69906 31862 ft 394 kts 200°
2026-04-29 13:39 10.88887 99.68268 31859 ft 395 kts 200°
2026-04-29 13:39 10.83595 99.66610 31853 ft 396 kts 200°
2026-04-29 13:40 10.78359 99.64972 31844 ft 396 kts 200°
2026-04-29 13:40 10.73087 99.63322 31856 ft 396 kts 200°
2026-04-29 13:41 10.67815 99.61673 31851 ft 397 kts 200°
2026-04-29 13:41 10.62539 99.60024 31853 ft 397 kts 200°
2026-04-29 13:42 10.57284 99.58381 31852 ft 397 kts 200°
2026-04-29 13:42 10.52004 99.56732 31852 ft 396 kts 200°
2026-04-29 13:43 10.46731 99.55085 31850 ft 396 kts 200°
2026-04-29 13:43 10.41466 99.53441 31846 ft 396 kts 200°
2026-04-29 13:44 10.36198 99.51796 31848 ft 396 kts 200°
2026-04-29 13:44 10.30916 99.50148 31847 ft 397 kts 200°
2026-04-29 13:45 10.25674 99.48515 31512 ft 385 kts 200°
2026-04-29 13:45 10.23155 99.47732 31264 ft 373 kts 200°
2026-04-29 13:45 10.20710 99.46972 31014 ft 362 kts 200°
2026-04-29 13:46 10.18334 99.46233 30769 ft 352 kts 200°
2026-04-29 13:46 10.16030 99.45516 30532 ft 342 kts 200°
2026-04-29 13:46 10.13786 99.44817 30285 ft 333 kts 200°
2026-04-29 13:46 10.11632 99.44145 30050 ft 324 kts 201°
2026-04-29 13:47 10.09501 99.43481 29792 ft 315 kts 201°
2026-04-29 13:47 10.07424 99.42834 29510 ft 308 kts 200°
2026-04-29 13:47 10.05393 99.42200 29231 ft 302 kts 200°
2026-04-29 13:47 10.03407 99.41581 28971 ft 299 kts 200°
2026-04-29 13:48 10.01415 99.40959 28718 ft 298 kts 200°
2026-04-29 13:48 9.99418 99.40335 28482 ft 302 kts 199°
2026-04-29 13:48 9.97401 99.39705 28244 ft 304 kts 199°
2026-04-29 13:48 9.95380 99.39076 27994 ft 303 kts 199°
2026-04-29 13:49 9.93372 99.38451 27735 ft 301 kts 199°
2026-04-29 13:49 9.91376 99.37830 27494 ft 299 kts 199°
2026-04-29 13:49 9.89390 99.37212 27244 ft 298 kts 199°
2026-04-29 13:49 9.87414 99.36597 27000 ft 296 kts 198°
2026-04-29 13:50 9.85447 99.35985 26758 ft 295 kts 198°
2026-04-29 13:50 9.83489 99.35376 26518 ft 293 kts 198°
2026-04-29 13:50 9.81542 99.34770 26283 ft 292 kts 198°
2026-04-29 13:50 9.79604 99.34168 26039 ft 291 kts 198°
2026-04-29 13:51 9.77676 99.33568 25818 ft 289 kts 198°
2026-04-29 13:51 9.75756 99.32971 25588 ft 288 kts 197°
2026-04-29 13:51 9.73846 99.32377 25356 ft 286 kts 197°
2026-04-29 13:51 9.71948 99.31787 25137 ft 285 kts 197°
2026-04-29 13:52 9.70058 99.31199 24899 ft 284 kts 196°
2026-04-29 13:52 9.68175 99.30614 24676 ft 282 kts 196°
2026-04-29 13:52 9.66326 99.30040 24458 ft 281 kts 196°
2026-04-29 13:52 9.64436 99.29453 24235 ft 280 kts 196°
2026-04-29 13:53 9.62604 99.28883 24022 ft 279 kts 195°
2026-04-29 13:53 9.60754 99.28309 23806 ft 277 kts 195°
2026-04-29 13:53 9.58912 99.27736 23591 ft 276 kts 195°
2026-04-29 13:53 9.57078 99.27167 23369 ft 275 kts 195°
2026-04-29 13:54 9.55250 99.26599 23111 ft 274 kts 195°
2026-04-29 13:54 9.53430 99.26035 22853 ft 273 kts 195°
2026-04-29 13:54 9.51619 99.25473 22603 ft 272 kts 195°
2026-04-29 13:54 9.49812 99.24912 22348 ft 271 kts 195°
2026-04-29 13:55 9.48013 99.24354 22098 ft 270 kts 195°
2026-04-29 13:55 9.46220 99.23798 21858 ft 269 kts 195°
2026-04-29 13:55 9.44435 99.23244 21612 ft 268 kts 195°
2026-04-29 13:55 9.42656 99.22693 21368 ft 267 kts 195°
2026-04-29 13:56 9.40883 99.22143 21121 ft 266 kts 195°
2026-04-29 13:56 9.39117 99.21595 20881 ft 265 kts 195°
2026-04-29 13:56 9.37360 99.21050 20644 ft 264 kts 195°
2026-04-29 13:56 9.35607 99.20506 20405 ft 263 kts 195°
2026-04-29 13:57 9.33861 99.19965 20177 ft 262 kts 194°
2026-04-29 13:57 9.32121 99.19425 19944 ft 261 kts 194°
2026-04-29 13:57 9.30383 99.18887 19712 ft 261 kts 194°
2026-04-29 13:57 9.28691 99.18362 19491 ft 260 kts 194°
2026-04-29 13:58 9.26941 99.17820 19261 ft 259 kts 194°
2026-04-29 13:58 9.25220 99.17287 19035 ft 259 kts 194°
2026-04-29 13:58 9.23502 99.16754 18808 ft 258 kts 194°
2026-04-29 13:58 9.21789 99.16223 18590 ft 257 kts 194°
2026-04-29 13:59 9.20081 99.15694 18370 ft 256 kts 194°
2026-04-29 13:59 9.18384 99.15168 18150 ft 255 kts 194°
2026-04-29 13:59 9.16687 99.14643 17900 ft 254 kts 194°
2026-04-29 13:59 9.14997 99.14120 17646 ft 253 kts 194°
2026-04-29 14:00 9.13328 99.13541 17405 ft 257 kts 203°
2026-04-29 14:00 9.11733 99.12548 17213 ft 283 kts 214°
2026-04-29 14:00 9.10114 99.11268 16996 ft 307 kts 217°
2026-04-29 14:00 9.08407 99.09850 16772 ft 327 kts 218°
2026-04-29 14:01 9.06633 99.08363 16532 ft 333 kts 218°
2026-04-29 14:01 9.04847 99.06872 16285 ft 332 kts 218°
2026-04-29 14:01 9.03091 99.05413 16040 ft 330 kts 218°
2026-04-29 14:01 9.01317 99.03948 15795 ft 328 kts 218°
2026-04-29 14:02 8.99547 99.02493 15557 ft 327 kts 218°
2026-04-29 14:02 8.97781 99.01044 15319 ft 326 kts 218°
2026-04-29 14:02 8.96019 98.99600 15094 ft 326 kts 218°